Regional Weather Roundup
Issued by NWS

Home | Current Version | Previous Version | Graphics & Text | Print | Product List | Glossary On
Versions: 1 2 3 4 5 6 7 8 9 10 11 12 13 14 15 16 17 18 19 20 21 22 23 24 25 26 27 28 29 30 31 32 33 34 35 36 37 38 39 40 41 42 43 44 45 46 47 48 49 50
000
ASUS43 KTOP 070208
RWRKS

WEATHER ROUNDUP FOR KANSAS
NATIONAL WEATHER SERVICE GOODLAND KS
800 PM CST TUE DEC 06 2016

NOTE:  "FAIR" INDICATES FEW OR NO CLOUDS BELOW 12,000 FEET WITH NO
SIGNIFICANT WEATHER AND/OR OBSTRUCTIONS TO VISIBILITY.

KSZ001>006-013>018-027>032-041>047-070300-
NORTHWEST KANSAS

CITY           SKY/WX    TMP DP  RH WIND       PRES   REMARKS
GOODLAND       CLOUDY    23   2  40 S6        29.98R
HAYS           CLOUDY    28  16  60 SE3       30.09R
HILL CITY      PTCLDY    23  10  57 CALM      30.07S
RUSSELL        PTCLDY    31  12  45 E5        30.08S
$$

KSZ061>065-074>080-084>089-070300-
SOUTHWEST KANSAS

CITY           SKY/WX    TMP DP  RH WIND       PRES   REMARKS
DODGE CITY     CLOUDY    30  12  47 SE6       30.06S
GARDEN CITY    CLOUDY    28   8  43 S6        30.03S
GREAT BEND     PTCLDY    31  17  56 S3        30.10R
LIBERAL        CLEAR     28   7  40 SE6       30.03S
PRATT          CLOUDY    31  11  43 CALM      30.09F
$$

KSZ066>073-081>083-090>101-070300-
SOUTHEAST KANSAS

CITY           SKY/WX    TMP DP  RH WIND       PRES   REMARKS
CHANUTE        CLOUDY    33  17  51 NE3       30.11F
COFFEYVILLE    PTCLDY    34  20  56 N5        30.14S
HUTCHINSON     CLOUDY    29  21  72 CALM      30.11S
MEDICINE LODGE   N/A     32  19  58 CALM      30.10S
NEWTON         MOCLDY    31  16  54 NE5       30.12R
PARSONS        PTCLDY    30  21  69 CALM      30.14S
WICHITA INTL   CLOUDY    33  19  56 CALM      30.11S
WICHITA JABRA  PTCLDY    33  16  49 CALM      30.11S
WICHITA MCCONL PTCLDY    35  16  46 NE3       30.11S
WINFIELD       PTCLDY    34  18  52 NE7       30.12F
$$

KSZ007>012-019>026-033>040-048>060-102>105-070300-
NORTHEAST KANSAS

CITY           SKY/WX    TMP DP  RH WIND       PRES   REMARKS
CONCORDIA      CLEAR     29   9  43 SE3       30.11R
EMPORIA        PTCLDY    31  15  52 CALM      30.12R
LAWRENCE       MOCLDY    25  21  85 CALM      30.15R
MANHATTAN      CLEAR     24  16  71 CALM      30.14R
MARYSVILLE     CLEAR     27  14  59 CALM      30.12R
OLATHE IND     PTCLDY    32  15  49 SW5       30.14R
OLATHE EXE     PTCLDY    29  19  66 CALM      30.13R
SALINA         PTCLDY    28  18  66 CALM      30.13R
TOPEKA BILLARD PTCLDY    28  16  60 CALM      30.14R
TOPEKA FORBES  PTCLDY    28  16  60 SW7       30.14R
$$




USA.gov is the U.S. government's official web portal to all federal, state and local government web resources and services.